Regional Weather Roundup
Issued by NWS Grand Forks, ND

Home | Current Version | Previous Version | Text Only | Print | Product List | Glossary Off
Versions: 1 2 3 4 5 6 7 8 9 10 11 12 13 14 15 16 17 18 19 20 21 22 23 24 25 26 27 28 29 30 31 32 33 34 35 36 37 38 39 40 41 42 43 44 45 46 47 48 49 50

490
ASUS43 KFGF 270510
RWRFGF
PRAIRIE TO PINES  WEATHER ROUNDUP
NATIONAL WEATHER SERVICE EASTERN NORTH DAKOTA/GRAND FORKS ND
1200 AM CDT MON MAR 27 2017

 **SATELLITE DATA USED TO AUGMENT SKY COVER AT AUTOMATED STATIONS**
 *****  WEATHER ACROSS EASTERN NORTH DAKOTA  *****

CITY           SKY/WX    TMP DP  RH WIND       PRES   REMARKS
GRAND FORKS    CLOUDY    40  39  97 CALM      29.95R
GRAND FRKS AFB FOG       32  32 100 NW3       29.95R VSB 1/2
DEVILS LAKE    FAIR      34  32  93 SE5       29.93S FOG
FARGO          FAIR      36  35  96 CALM      29.94S
WAHPETON ARPT  FAIR      32  32 100 CALM      29.95S
$$

 ***** WEATHER ACROSS CENTRAL AND WESTERN NORTH DAKOTA  *****

CITY           SKY/WX    TMP DP  RH WIND       PRES   REMARKS
BISMARCK       FAIR      40  35  83 E3        29.93R
MINOT          FAIR      41  38  89 SE6       29.88S
JAMESTOWN      FAIR      37  36  96 S5        29.92R
MINOT AFB      FAIR      39  36  91 NE3       29.88R
GARRISON         N/A     44  36  73 SW3       29.90R
WILLISTON      MOCLDY    40  28  62 CALM      29.89F
DICKINSON      FAIR      43  30  60 CALM      29.87S
HETTINGER      FAIR      40  34  79 CALM      29.92S
$$

 *****  OTHER AIRPORT OBSERVATIONS IN OUR AREA  *****

CITY           SKY/WX    TMP DP  RH WIND       PRES   REMARKS
WALHALLA       NOT AVBL
GRAFTON AIRPOR FOG       30  32 100 NE5       29.97S VSB 1/4
VALLEY CITY AR FAIR      34  34 100 S3        29.95R
CANDO          NOT AVBL
CAVALIER APRT  FOG       30  30 100 W5        29.95S VSB<1/4
GWINNER        CLOUDY    37  36  93 MISG      29.95R
SHEYENNE NWR     N/A     34  34 100 CALM      29.95S
ROLLA          MOCLDY    34  34 100 SW7       29.92S
 ***** THE ABOVE OBSERVATIONS ARE NON NWS ARE NOT QUALITY
       CONTROLLED AND MAY MIS-REPORT RAIN FOR SNOW...
$$

  *****  WEATHER ACROSS NORTHERN MINNESOTA  *****

CITY           SKY/WX    TMP DP  RH WIND       PRES   REMARKS
FLAG ISLAND    FAIR      30  28  93 CALM      29.93S
WARROAD        FAIR      30  27  86 W3        29.94S FOG
ROSEAU         HAZE      30  27  86 CALM      29.94S VSB 1/4
HALLOCK        FOG       30  30 100 CALM      29.96R VSB 1/4
THF RVR FALLS  FOG       32  29  88 CALM      29.95F VSB 1/4
BAUDETTE       FAIR      29  28  96 CALM      29.93S FOG
WASKISH        FAIR      30  28  93 CALM      29.93F
CROOKSTON      FOG       32  30  93 CALM      29.96S VSB 1/4
GREENBUSH NDAW   N/A     30  30 100 W3          N/A
$$
  *****  WEATHER ACROSS CENTRAL AND WEST MINNESOTA  *****

CITY           SKY/WX    TMP DP  RH WIND       PRES   REMARKS
FOSSTON        CLOUDY    34  34 100 CALM      29.95S FOG
BEMIDJI        FAIR      34  31  89 W3        29.93S
PARK RAPIDS    FAIR      35  29  78 CALM      29.93R
ELBOW LAKE     MOCLDY    37  36  95 N3        29.95S
WADENA         FAIR      36  30  80 CALM      29.93S
DETROIT LAKES  FAIR      37  36  93 CALM      29.95S
MOORHEAD       MOCLDY    37  36  93 CALM      29.96S
FERGUS FALLS   FAIR      37  36  93 NE3       29.98S
MORRIS MN      FAIR      37  36  93 CALM      29.93F
STAPLES        CLOUDY    36  32  87 CALM      29.94S
$$
  *****  WEATHER ELSEWHERE ACROSS MINNESOTA  *****

CITY           SKY/WX    TMP DP  RH WIND       PRES   REMARKS
DULUTH         FOG       32  31  96 CALM      29.92S VSB 3/4
INTRNTL FALLS  FAIR      32  27  81 CALM      29.92S
ELY            FAIR      28  27  93 CALM      29.91S
CLOQUET        FOG       30  30 100 CALM      29.93R VSB 1
WHEATON        FAIR      32  30  93 CALM      29.97S
BRAINERD       CLOUDY    35  32  88 SW3       29.94S
HIBBING        CLOUDY    29  29 100 CALM      29.92R
ALEXANDRIA     CLOUDY    40  34  79 CALM      29.94S
SAINT CLOUD    CLOUDY    37  37 100 CALM      29.95S
MINNEAPOLIS    CLOUDY    39  35  86 N5        29.94F
$$

  *****  WEATHER ACROSS SOUTH DAKOTA  *****

CITY           SKY/WX    TMP DP  RH WIND       PRES   REMARKS
SIOUX FALLS    CLOUDY    43  39  86 E5        29.96F
BROOKINGS      FAIR      36  35  96 CALM      29.93
WATERTOWN      MOCLDY    37  35  92 S6        29.94S
HURON          FAIR      38  36  92 SW7       29.96R
SISSETON         N/A     34  33  96 SW5       29.94S
ABERDEEN       CLOUDY    39  34  82 S6        29.95R
MITCHELL       FAIR      41  37  86 NW5       29.96F
PIERRE         CLOUDY    41  38  89 CALM      29.95S
MOBRIDGE       CLOUDY    45  36  70 CALM      29.91S
RAPID CITY     FOG       32  32 100 CALM      29.93F VSB 1/4
$$

  *****  SOME WEATHER IN NEARBY STATES *****

CITY           SKY/WX    TMP DP  RH WIND       PRES   REMARKS
GLASGOW MT     FAIR      40  24  53 NE10      29.86F
GREAT FALLS MT CLOUDY    46  13  26 E10       29.80S
CHEYENNE WY    MOCLDY    36  33  89 S3        29.98S
SCOTTSBLUFF NE FAIR      34  29  82 NE3       29.96S
OMAHA NE       CLOUDY    47  42  83 N3        29.95R
DES MOINES IA  CLOUDY    46  44  93 N3        29.93F
DAVENPORT IA   CLOUDY    47  45  93 W7        29.92S
CHICAGO IL     CLOUDY    52  49  89 W9        29.87F
EAU CLAIRE WI  CLOUDY    40  39  97 N3        29.92S FOG
LA CROSSE WI   CLOUDY    42  40  92 CALM      29.92F
$$

  *****  SOME NATIONAL WEATHER *****

CITY           SKY/WX    TMP DP  RH WIND       PRES   REMARKS
LA GUARDIA NY  DRIZZLE   40  37  89 NE15      30.29F FOG
RALEIGH NC     MOCLDY    66  53  63 S8        30.15S
ATLANTA GA     FAIR      65  55  70 SW3       30.06F
NEW ORLEANS LA MOCLDY    70  69  97 SE9       29.98F
OKLAHOMA CITY  FAIR      60  55  83 W8        29.75R
ALBUQUERQUE NM MOCLDY    53  24  32 W6        30.02R
SALT LAKE CITY MOCLDY    51  32  48 SE7       29.93F
LOS ANGELES CA FAIR      59  52  77 W15       30.04S
BOISE ID       CLOUDY    48  35  60 SE10      29.86F
SEATTLE WA     LGT RAIN  46  44  93 S12       29.81R
$$

*** WEATHER ACROSS MANITOBA...SASKATCHEWAN AND ONTARIO ***
                ***ONTARIO***

CITY           SKY/WX    TMP DP  RH WIND       PRES   REMARKS
GERALDTON      CLEAR     25  25 100 SW2       29.88F
THUNDER BAY    CLOUDY    32  32 100 W3        29.93S
SIOUX LOOKOUT  PTCLDY    25  25 100 CALM      29.90S
TORONTO        CLOUDY    43  41  93 E3        29.92F
BIG TROUT LK   CLOUDY    32  25  74 N6        29.90S
PICKLE LAKE    NOT AVBL
DRYDEN         CLEAR     34  32  93 W3        29.91S
KENORA         CLEAR     30  28  93 NE5       29.93R
$$
                *** MANITOBA***

CITY           SKY/WX    TMP DP  RH WIND       PRES   REMARKS
BRANDON        LGT RAIN  34  32  93 NE6       29.93R
DAUPHIN        MOCLDY    34  32  93 N10       29.96R
ISLAND LAKE    CLEAR     23  18  80 N5        29.99R WCI  17
PILOT MOUND      N/A     30  30 100 SE7         N/A  WCI  23
THE PAS        CLEAR     25  19  80 NE5       30.01R WCI  19
THOMPSON       FLURRIES  21  18  86 N5        30.06R WCI  15
WINNIPEG       CLEAR     32  30  93 NE3       29.96F
LYNN LAKE      CLEAR     16  14  93 NE5       30.06R WCI   9
CHURCHILL      FLURRIES  12   9  85 N15       30.08R WCI  -4
GILLAM         FLURRIES  14  10  85 N9        30.04R WCI   2
$$
                ***SASKATCHEWAN***

CITY           SKY/WX    TMP DP  RH WIND       PRES   REMARKS
ESTEVAN        PTCLDY    34  32  93 E5        29.89S
KINDERSLEY     FOG       30  30 100 E14       29.86F VSB 1/4 WCI  20
LLOYDMINSTER   CLEAR     34  32  93 SE12      29.87S
PRINCE ALBERT  CLOUDY    25  23  93 NE2       29.98R
REGINA         CLEAR     30  30 100 N8        29.88R WCI  23
YORKTON        PTCLDY    28  28 100 N6        29.90R WCI  22
N. BATTLEFORD  CLEAR     28 N/A N/A E10       29.94S WCI  19
LA RONGE       CLEAR     14  12  92 NE2       30.00R
SASKATOON      CLOUDY    28  27  93 E8        29.96R WCI  20
SWIFT CURRENT  CLEAR     34  28  80 E12       29.84F
$$
NOTE: THESE ARE AUTOMATED STATIONS WITH LIMITED QUALITY CONTROL
      "FAIR" INDICATES FEW OR NO CLOUDS BELOW 12,000 FEET WITH NO
      SIGNIFICANT WEATHER AND/OR OBSTRUCTIONS TO VISIBILITY.
      SKY/WX - SKY CONDITION AND SIGNIFICANT WEATHER.
      TMP - AIR TEMPERATURE.    DP   - DEWPOINT TEMPERATURE.
      RH  - RELATIVE HUMIDITY.  PRES - PRESSURE.
      HX  - HEAT INDEX.         WCI  - WIND CHILL INDEX.
$




USA.gov is the U.S. government's official web portal to all federal, state and local government web resources and services.